Location: La Comballaz
(46.3780°N, 7.0817°E)
Time: 08:31:41
(UTC+00:00)

XW-2F - Visible Passes

Search period start: 27 November 2022 00:00
Search period end: 07 December 2022 00:00
Orbit: 477 x 496 km, 97.5° (Epoch: 26 November)

Date Brightness Start Highest point End Pass type
(mag) Time Alt. Az. Time Alt. Az. Time Alt. Az.
27 Nov ? 06:06:07 10° NNE 06:09:42 89° ESE 06:13:15 10° SSW visible
27 Nov ? 16:44:36 10° SSE 16:48:06 51° ENE 16:51:36 10° N visible
27 Nov ? 18:20:30 10° WSW 18:21:52 12° W 18:23:16 10° WNW visible
28 Nov ? 05:42:26 10° NNE 05:45:52 43° E 05:49:16 10° S visible
28 Nov ? 16:21:20 10° SE 16:24:24 27° ENE 16:27:28 10° N visible
28 Nov ? 17:55:03 10° SSW 17:57:53 22° W 18:00:42 10° NW visible
29 Nov ? 05:19:04 10° NE 05:21:57 23° E 05:24:48 10° SSE visible
29 Nov ? 17:30:32 10° S 17:33:56 41° W 17:37:21 10° NNW visible
30 Nov ? 04:56:22 10° ENE 04:57:55 12° E 04:59:28 10° ESE visible
30 Nov ? 17:06:29 10° SSE 17:10:03 84° WSW 17:13:39 10° NNW visible
01 Dec ? 06:04:17 10° NNE 06:07:52 84° ESE 06:11:26 10° SSW visible
01 Dec ? 16:42:47 10° SSE 16:46:14 48° ENE 16:49:42 10° N visible
01 Dec ? 18:18:25 10° WSW 18:20:00 12° W 18:21:34 10° WNW visible
02 Dec ? 05:40:34 10° NNE 05:43:58 41° E 05:47:20 10° S visible
02 Dec ? 16:19:29 10° SE 16:22:29 26° ENE 16:25:29 10° NNE visible
02 Dec ? 17:53:02 10° SSW 17:55:56 23° W 17:58:49 10° NW visible
03 Dec ? 05:17:08 10° NE 05:19:57 22° E 05:22:46 10° SSE visible
03 Dec ? 17:28:30 10° S 17:31:55 43° W 17:35:21 10° NNW visible
04 Dec ? 04:54:32 10° ENE 04:55:52 12° E 04:57:12 10° ESE visible
04 Dec ? 17:04:25 10° SSE 17:07:59 89° W 17:11:34 10° NNW visible
05 Dec ? 06:02:10 10° NNE 06:05:45 79° ESE 06:09:19 10° S visible
05 Dec ? 16:40:41 10° SE 16:44:06 45° ENE 16:47:32 10° N visible
05 Dec ? 18:16:04 10° WSW 18:17:49 13° W 18:19:35 10° WNW visible
06 Dec ? 05:38:24 10° NNE 05:41:46 38° E 05:45:07 10° SSE visible
06 Dec ? 16:17:22 10° ESE 16:20:17 24° ENE 16:23:12 10° NNE visible
06 Dec ? 17:50:44 10° SSW 17:53:41 24° W 17:56:39 10° NW visible
